Location: New York
(40.7140°N, 74.0060°W)
Time: 08:18:43
(UTC-04:00)

ISS - Visible Passes

Search period start: 05 September 2015 00:00
Search period end: 15 September 2015 00:00
Orbit: 400 x 402 km, 51.6° (Epoch: 05 September)

Date Brightness Start Highest point End Pass type
(mag) Time Alt. Az. Time Alt. Az. Time Alt. Az.
07 Sep -0.4 05:24:55 10° SSE 05:25:56 11° SE 05:27:05 10° ESE visible
09 Sep -1.5 05:13:11 13° S 05:15:23 26° SE 05:18:10 10° ENE visible
10 Sep -0.6 04:22:20 13° SE 04:22:20 13° SE 04:23:53 10° E visible
10 Sep -3.2 05:55:01 10° WSW 05:58:15 66° NW 06:01:30 10° NE visible
11 Sep -3.1 05:03:59 41° SSW 05:04:53 62° SE 05:08:07 10° ENE visible
12 Sep -0.9 04:12:57 21° E 04:12:57 21° E 04:14:30 10° ENE visible
12 Sep -2.2 05:45:33 14° W 05:47:57 33° NNW 05:50:57 10° NE visible
13 Sep -3.1 04:54:25 57° NW 04:54:27 57° NNW 04:57:41 10° NE visible
14 Sep -0.5 04:03:14 19° ENE 04:03:14 19° ENE 04:04:17 10° ENE visible
14 Sep -1.4 05:35:49 13° WNW 05:37:44 20° NNW 05:40:16 10° NNE visible
